Time,TemperatureF,DewpointF,PressureIn,WindDirection,WindDirectionDegrees,WindSpeedMPH,WindSpeedGustMPH,Humidity,HourlyPrecipIn,Conditions,Clouds,dailyrainin,SolarRadiationWatts/m^2,SoftwareType,DateUTC
2013-02-07 00:04:00,67.6,61.2,30.00,NNE,23,0.0,-999.0,80,0.00,,,0.00,0,Wunderground v.1.15,2013-02-06 13:04:00,
2013-02-07 00:09:00,67.6,61.2,30.00,NNE,23,0.0,-999.0,80,0.00,,,0.00,0,Wunderground v.1.15,2013-02-06 13:09:00,
2013-02-07 00:14:00,67.6,61.2,30.00,NNE,23,0.0,-999.0,80,0.00,,,0.00,0,Wunderground v.1.15,2013-02-06 13:14:00,
2013-02-07 00:19:00,67.6,61.2,30.00,NNE,23,0.0,-999.0,80,0.00,,,0.00,0,Wunderground v.1.15,2013-02-06 13:19:00,
2013-02-07 00:24:00,67.6,61.2,30.00,NNE,23,0.0,-999.0,80,0.00,,,0.00,0,Wunderground v.1.15,2013-02-06 13:24:00,
2013-02-07 00:29:00,67.6,61.2,30.00,NNE,23,0.0,-999.0,80,0.00,,,0.00,0,Wunderground v.1.15,2013-02-06 13:29:00,
2013-02-07 00:34:00,67.6,61.2,30.00,NNE,23,0.0,-999.0,80,0.00,,,0.00,0,Wunderground v.1.15,2013-02-06 13:34:00,
2013-02-07 00:39:00,67.6,61.2,30.00,NNE,23,0.0,-999.0,80,0.00,,,0.00,0,Wunderground v.1.15,2013-02-06 13:39:00,
2013-02-07 00:44:00,67.6,61.2,30.00,NNE,23,0.0,-999.0,80,0.00,,,0.00,0,Wunderground v.1.15,2013-02-06 13:44:00,
2013-02-07 00:49:00,66.9,60.9,29.99,NNE,23,0.0,-999.0,81,0.00,,,0.00,0,Wunderground v.1.15,2013-02-06 13:49:00,
2013-02-07 00:54:00,66.9,60.9,29.99,NNE,23,0.0,-999.0,81,0.00,,,0.00,0,Wunderground v.1.15,2013-02-06 13:54:00,
2013-02-07 00:59:00,66.9,60.9,29.99,NNE,23,0.0,-999.0,81,0.00,,,0.00,0,Wunderground v.1.15,2013-02-06 13:59:00,
2013-02-07 01:04:00,66.9,60.9,29.99,NNE,23,0.0,-999.0,81,0.00,,,0.00,0,Wunderground v.1.15,2013-02-06 14:04:00,
2013-02-07 01:09:00,66.9,60.9,29.99,NNE,23,0.0,-999.0,81,0.00,,,0.00,0,Wunderground v.1.15,2013-02-06 14:09:00,
2013-02-07 01:14:00,66.9,60.9,29.99,NNE,23,0.0,-999.0,81,0.00,,,0.00,0,Wunderground v.1.15,2013-02-06 14:14:00,
2013-02-07 01:19:00,66.6,60.6,29.99,NE,45,0.0,-999.0,81,0.00,,,0.00,0,Wunderground v.1.15,2013-02-06 14:19:00,
2013-02-07 01:24:00,66.6,60.6,29.99,NE,45,0.0,-999.0,81,0.00,,,0.00,0,Wunderground v.1.15,2013-02-06 14:24:00,
2013-02-07 01:29:00,66.6,60.6,29.99,NE,45,0.0,-999.0,81,0.00,,,0.00,0,Wunderground v.1.15,2013-02-06 14:29:00,
2013-02-07 01:34:00,66.6,60.6,29.99,NE,45,0.0,-999.0,81,0.00,,,0.00,0,Wunderground v.1.15,2013-02-06 14:34:00,
2013-02-07 01:39:00,66.6,60.6,29.99,NE,45,0.0,-999.0,81,0.00,,,0.00,0,Wunderground v.1.15,2013-02-06 14:39:00,
2013-02-07 01:44:00,66.6,60.6,29.99,NE,45,0.0,-999.0,81,0.00,,,0.00,0,Wunderground v.1.15,2013-02-06 14:44:00,
2013-02-07 01:49:00,66.3,60.6,29.98,NNE,23,0.0,-999.0,82,0.00,,,0.00,0,Wunderground v.1.15,2013-02-06 14:49:00,
2013-02-07 01:54:00,66.3,60.6,29.98,NNE,23,0.0,-999.0,82,0.00,,,0.00,0,Wunderground v.1.15,2013-02-06 14:54:00,
2013-02-07 01:59:00,66.3,60.6,29.98,NNE,23,0.0,-999.0,82,0.00,,,0.00,0,Wunderground v.1.15,2013-02-06 14:59:00,
2013-02-07 02:04:00,66.3,60.6,29.98,NNE,23,0.0,-999.0,82,0.00,,,0.00,0,Wunderground v.1.15,2013-02-06 15:04:00,
2013-02-07 02:09:00,66.3,60.6,29.98,NNE,23,0.0,-999.0,82,0.00,,,0.00,0,Wunderground v.1.15,2013-02-06 15:09:00,
2013-02-07 02:14:00,66.3,60.6,29.98,NNE,23,0.0,-999.0,82,0.00,,,0.00,0,Wunderground v.1.15,2013-02-06 15:14:00,
2013-02-07 02:19:00,65.8,60.5,29.98,NNE,23,0.0,-999.0,83,0.00,,,0.00,0,Wunderground v.1.15,2013-02-06 15:19:00,
2013-02-07 02:24:00,65.8,60.5,29.98,NNE,23,0.0,-999.0,83,0.00,,,0.00,0,Wunderground v.1.15,2013-02-06 15:24:00,
2013-02-07 02:29:00,65.8,60.5,29.98,NNE,23,0.0,-999.0,83,0.00,,,0.00,0,Wunderground v.1.15,2013-02-06 15:29:00,
2013-02-07 02:34:00,65.8,60.5,29.98,NNE,23,0.0,-999.0,83,0.00,,,0.00,0,Wunderground v.1.15,2013-02-06 15:34:00,
2013-02-07 02:39:00,65.8,60.5,29.98,NNE,23,0.0,-999.0,83,0.00,,,0.00,0,Wunderground v.1.15,2013-02-06 15:39:00,
2013-02-07 02:44:00,65.8,60.5,29.98,NNE,23,0.0,-999.0,83,0.00,,,0.00,0,Wunderground v.1.15,2013-02-06 15:44:00,
2013-02-07 02:49:00,65.4,60.4,29.97,NNE,23,0.0,-999.0,84,0.00,,,0.00,0,Wunderground v.1.15,2013-02-06 15:49:00,
2013-02-07 02:54:00,65.4,60.4,29.97,NNE,23,0.0,-999.0,84,0.00,,,0.00,0,Wunderground v.1.15,2013-02-06 15:54:00,
2013-02-07 02:59:00,65.4,60.4,29.97,NNE,23,0.0,-999.0,84,0.00,,,0.00,0,Wunderground v.1.15,2013-02-06 15:59:00,
2013-02-07 03:04:00,65.4,60.4,29.97,NNE,23,0.0,-999.0,84,0.00,,,0.00,0,Wunderground v.1.15,2013-02-06 16:04:00,
2013-02-07 03:09:00,65.4,60.4,29.97,NNE,23,0.0,-999.0,84,0.00,,,0.00,0,Wunderground v.1.15,2013-02-06 16:09:00,
2013-02-07 03:14:00,65.4,60.4,29.97,NNE,23,0.0,-999.0,84,0.00,,,0.00,0,Wunderground v.1.15,2013-02-06 16:14:00,
2013-02-07 03:19:00,65.2,59.6,29.96,NE,45,1.0,-999.0,82,0.00,,,0.00,0,Wunderground v.1.15,2013-02-06 16:19:00,
2013-02-07 03:24:00,65.2,59.6,29.96,NE,45,1.0,-999.0,82,0.00,,,0.00,0,Wunderground v.1.15,2013-02-06 16:24:00,
2013-02-07 03:29:00,65.2,59.6,29.96,NE,45,1.0,-999.0,82,0.00,,,0.00,0,Wunderground v.1.15,2013-02-06 16:29:00,
2013-02-07 03:34:00,65.2,59.6,29.96,NE,45,1.0,-999.0,82,0.00,,,0.00,0,Wunderground v.1.15,2013-02-06 16:34:00,
2013-02-07 03:39:00,65.2,59.6,29.96,NE,45,1.0,-999.0,82,0.00,,,0.00,0,Wunderground v.1.15,2013-02-06 16:39:00,
2013-02-07 03:44:00,65.2,59.6,29.96,NE,45,1.0,-999.0,82,0.00,,,0.00,0,Wunderground v.1.15,2013-02-06 16:44:00,
2013-02-07 03:49:00,65.0,59.4,29.95,NE,45,1.0,-999.0,82,0.00,,,0.00,0,Wunderground v.1.15,2013-02-06 16:49:00,
2013-02-07 03:54:00,65.0,59.4,29.95,NE,45,1.0,-999.0,82,0.00,,,0.00,0,Wunderground v.1.15,2013-02-06 16:54:00,
2013-02-07 03:59:00,65.0,59.4,29.95,NE,45,1.0,-999.0,82,0.00,,,0.00,0,Wunderground v.1.15,2013-02-06 16:59:00,
2013-02-07 04:04:00,65.0,59.4,29.95,NE,45,1.0,-999.0,82,0.00,,,0.00,0,Wunderground v.1.15,2013-02-06 17:04:00,
2013-02-07 04:09:00,65.0,59.4,29.95,NE,45,1.0,-999.0,82,0.00,,,0.00,0,Wunderground v.1.15,2013-02-06 17:09:00,
2013-02-07 04:14:00,65.0,59.4,29.95,NE,45,1.0,-999.0,82,0.00,,,0.00,0,Wunderground v.1.15,2013-02-06 17:14:00,
2013-02-07 04:19:00,65.5,59.5,29.95,NE,45,1.0,-999.0,81,0.00,,,0.00,0,Wunderground v.1.15,2013-02-06 17:19:00,
2013-02-07 04:24:00,65.5,59.5,29.95,NE,45,1.0,-999.0,81,0.00,,,0.00,0,Wunderground v.1.15,2013-02-06 17:24:00,
2013-02-07 04:29:00,65.5,59.5,29.95,NE,45,1.0,-999.0,81,0.00,,,0.00,0,Wunderground v.1.15,2013-02-06 17:29:00,
2013-02-07 04:34:00,65.5,59.5,29.95,NE,45,1.0,-999.0,81,0.00,,,0.00,0,Wunderground v.1.15,2013-02-06 17:34:00,
2013-02-07 04:39:00,65.5,59.5,29.95,NE,45,1.0,-999.0,81,0.00,,,0.00,0,Wunderground v.1.15,2013-02-06 17:39:00,
2013-02-07 04:44:00,65.5,59.5,29.95,NE,45,1.0,-999.0,81,0.00,,,0.00,0,Wunderground v.1.15,2013-02-06 17:44:00,
2013-02-07 04:49:00,65.5,59.5,29.95,NNE,23,1.0,-999.0,81,0.00,,,0.00,0,Wunderground v.1.15,2013-02-06 17:49:00,
2013-02-07 04:54:00,65.5,59.5,29.95,NNE,23,1.0,-999.0,81,0.00,,,0.00,0,Wunderground v.1.15,2013-02-06 17:54:00,
2013-02-07 04:59:00,65.5,59.5,29.95,NNE,23,1.0,-999.0,81,0.00,,,0.00,0,Wunderground v.1.15,2013-02-06 17:59:00,
2013-02-07 05:04:00,65.5,59.5,29.95,NNE,23,1.0,-999.0,81,0.00,,,0.00,0,Wunderground v.1.15,2013-02-06 18:04:00,
2013-02-07 05:09:00,65.5,59.5,29.95,NNE,23,1.0,-999.0,81,0.00,,,0.00,0,Wunderground v.1.15,2013-02-06 18:09:00,
2013-02-07 05:14:00,65.5,59.5,29.95,NNE,23,1.0,-999.0,81,0.00,,,0.00,0,Wunderground v.1.15,2013-02-06 18:14:00,
2013-02-07 05:19:00,65.3,59.3,29.95,NE,45,1.0,-999.0,81,0.00,,,0.00,0,Wunderground v.1.15,2013-02-06 18:19:00,
2013-02-07 05:24:00,65.3,59.3,29.95,NE,45,1.0,-999.0,81,0.00,,,0.00,0,Wunderground v.1.15,2013-02-06 18:24:00,
2013-02-07 05:29:00,65.3,59.3,29.95,NE,45,1.0,-999.0,81,0.00,,,0.00,0,Wunderground v.1.15,2013-02-06 18:29:00,
2013-02-07 05:34:00,65.3,59.3,29.95,NE,45,1.0,-999.0,81,0.00,,,0.00,0,Wunderground v.1.15,2013-02-06 18:34:00,
2013-02-07 05:39:00,65.3,59.3,29.95,NE,45,1.0,-999.0,81,0.00,,,0.00,0,Wunderground v.1.15,2013-02-06 18:39:00,
2013-02-07 05:44:00,65.3,59.3,29.95,NE,45,1.0,-999.0,81,0.00,,,0.00,0,Wunderground v.1.15,2013-02-06 18:44:00,
2013-02-07 05:49:00,65.2,59.2,29.96,ENE,68,1.0,-999.0,81,0.00,,,0.00,0,Wunderground v.1.15,2013-02-06 18:49:00,
2013-02-07 05:54:00,65.2,59.2,29.96,ENE,68,1.0,-999.0,81,0.00,,,0.00,0,Wunderground v.1.15,2013-02-06 18:54:00,
2013-02-07 05:59:00,65.2,59.2,29.96,ENE,68,1.0,-999.0,81,0.00,,,0.00,0,Wunderground v.1.15,2013-02-06 18:59:00,
2013-02-07 06:04:00,65.2,59.2,29.96,ENE,68,1.0,-999.0,81,0.00,,,0.00,0,Wunderground v.1.15,2013-02-06 19:04:00,
2013-02-07 06:09:00,65.2,59.2,29.96,ENE,68,1.0,-999.0,81,0.00,,,0.00,0,Wunderground v.1.15,2013-02-06 19:09:00,
2013-02-07 06:14:00,65.2,59.2,29.96,ENE,68,1.0,-999.0,81,0.00,,,0.00,0,Wunderground v.1.15,2013-02-06 19:14:00,
2013-02-07 06:19:00,65.0,59.0,29.96,NE,45,1.0,-999.0,81,0.00,,,0.00,1,Wunderground v.1.15,2013-02-06 19:19:00,
2013-02-07 06:24:00,65.0,59.0,29.96,NE,45,1.0,-999.0,81,0.00,,,0.00,1,Wunderground v.1.15,2013-02-06 19:24:00,
2013-02-07 06:29:00,65.0,59.0,29.96,NE,45,1.0,-999.0,81,0.00,,,0.00,1,Wunderground v.1.15,2013-02-06 19:29:00,
2013-02-07 06:34:00,65.0,59.0,29.96,NE,45,1.0,-999.0,81,0.00,,,0.00,1,Wunderground v.1.15,2013-02-06 19:34:00,
2013-02-07 06:39:00,65.0,59.0,29.96,NE,45,1.0,-999.0,81,0.00,,,0.00,1,Wunderground v.1.15,2013-02-06 19:39:00,
2013-02-07 06:44:00,65.0,59.0,29.96,NE,45,1.0,-999.0,81,0.00,,,0.00,1,Wunderground v.1.15,2013-02-06 19:44:00,
2013-02-07 06:49:00,64.8,59.2,29.97,NE,45,2.0,-999.0,82,0.00,,,0.00,15,Wunderground v.1.15,2013-02-06 19:49:00,
2013-02-07 06:54:00,64.8,59.2,29.97,NE,45,2.0,-999.0,82,0.00,,,0.00,15,Wunderground v.1.15,2013-02-06 19:54:00,
2013-02-07 06:59:00,64.8,59.2,29.97,NE,45,2.0,-999.0,82,0.00,,,0.00,15,Wunderground v.1.15,2013-02-06 19:59:00,
2013-02-07 07:04:00,64.8,59.2,29.97,NE,45,2.0,-999.0,82,0.00,,,0.00,15,Wunderground v.1.15,2013-02-06 20:04:00,
2013-02-07 07:09:00,64.8,59.2,29.97,NE,45,2.0,-999.0,82,0.00,,,0.00,15,Wunderground v.1.15,2013-02-06 20:09:00,
2013-02-07 07:14:00,64.8,59.2,29.97,NE,45,2.0,-999.0,82,0.00,,,0.00,15,Wunderground v.1.15,2013-02-06 20:14:00,
2013-02-07 07:19:00,65.3,59.0,29.98,NNE,23,2.0,-999.0,80,0.00,,,0.00,26,Wunderground v.1.15,2013-02-06 20:19:00,
2013-02-07 07:24:00,65.3,59.0,29.98,NNE,23,2.0,-999.0,80,0.00,,,0.00,26,Wunderground v.1.15,2013-02-06 20:24:00,
2013-02-07 07:29:00,65.3,59.0,29.98,NNE,23,2.0,-999.0,80,0.00,,,0.00,26,Wunderground v.1.15,2013-02-06 20:29:00,
2013-02-07 07:34:00,65.3,59.0,29.98,NNE,23,2.0,-999.0,80,0.00,,,0.00,26,Wunderground v.1.15,2013-02-06 20:34:00,
2013-02-07 07:39:00,65.3,59.0,29.98,NNE,23,2.0,-999.0,80,0.00,,,0.00,26,Wunderground v.1.15,2013-02-06 20:39:00,
2013-02-07 07:44:00,65.3,59.0,29.98,NNE,23,2.0,-999.0,80,0.00,,,0.00,26,Wunderground v.1.15,2013-02-06 20:44:00,
2013-02-07 07:49:00,66.1,59.0,29.99,NE,45,1.0,-999.0,78,0.00,,,0.00,54,Wunderground v.1.15,2013-02-06 20:49:00,
2013-02-07 07:54:00,66.1,59.0,29.99,NE,45,1.0,-999.0,78,0.00,,,0.00,54,Wunderground v.1.15,2013-02-06 20:54:00,
2013-02-07 07:59:00,66.1,59.0,29.99,NE,45,1.0,-999.0,78,0.00,,,0.00,54,Wunderground v.1.15,2013-02-06 20:59:00,
2013-02-07 08:04:00,66.1,59.0,29.99,NE,45,1.0,-999.0,78,0.00,,,0.00,54,Wunderground v.1.15,2013-02-06 21:04:00,
2013-02-07 08:09:00,66.1,59.0,29.99,NE,45,1.0,-999.0,78,0.00,,,0.00,54,Wunderground v.1.15,2013-02-06 21:09:00,
2013-02-07 08:14:00,66.1,59.0,29.99,NE,45,1.0,-999.0,78,0.00,,,0.00,54,Wunderground v.1.15,2013-02-06 21:14:00,
2013-02-07 08:19:00,67.8,59.6,29.99,NE,45,2.0,-999.0,75,0.00,,,0.00,83,Wunderground v.1.15,2013-02-06 21:19:00,
2013-02-07 08:24:00,67.8,59.6,29.99,NE,45,2.0,-999.0,75,0.00,,,0.00,83,Wunderground v.1.15,2013-02-06 21:24:00,
2013-02-07 08:29:00,67.8,59.6,29.99,NE,45,2.0,-999.0,75,0.00,,,0.00,83,Wunderground v.1.15,2013-02-06 21:29:00,
2013-02-07 08:34:00,67.8,59.6,29.99,NE,45,2.0,-999.0,75,0.00,,,0.00,83,Wunderground v.1.15,2013-02-06 21:34:00,
2013-02-07 08:39:00,67.8,59.6,29.99,NE,45,2.0,-999.0,75,0.00,,,0.00,83,Wunderground v.1.15,2013-02-06 21:39:00,
2013-02-07 08:44:00,67.8,59.6,29.99,NE,45,2.0,-999.0,75,0.00,,,0.00,83,Wunderground v.1.15,2013-02-06 21:44:00,
2013-02-07 08:49:00,70.3,59.6,30.00,NNE,23,2.0,-999.0,69,0.00,,,0.00,162,Wunderground v.1.15,2013-02-06 21:49:00,
2013-02-07 08:54:00,70.3,59.6,30.00,NNE,23,2.0,-999.0,69,0.00,,,0.00,162,Wunderground v.1.15,2013-02-06 21:54:00,
2013-02-07 08:59:00,70.3,59.6,30.00,NNE,23,2.0,-999.0,69,0.00,,,0.00,162,Wunderground v.1.15,2013-02-06 21:59:00,
2013-02-07 09:04:00,70.3,59.6,30.00,NNE,23,2.0,-999.0,69,0.00,,,0.00,162,Wunderground v.1.15,2013-02-06 22:04:00,
2013-02-07 09:09:00,70.3,59.6,30.00,NNE,23,2.0,-999.0,69,0.00,,,0.00,162,Wunderground v.1.15,2013-02-06 22:09:00,
2013-02-07 09:14:00,70.3,59.6,30.00,NNE,23,2.0,-999.0,69,0.00,,,0.00,162,Wunderground v.1.15,2013-02-06 22:14:00,
2013-02-07 09:19:00,73.6,59.8,30.00,NNE,23,3.0,-999.0,62,0.00,,,0.00,488,Wunderground v.1.15,2013-02-06 22:19:00,
2013-02-07 09:24:00,73.6,59.8,30.00,NNE,23,3.0,-999.0,62,0.00,,,0.00,488,Wunderground v.1.15,2013-02-06 22:24:00,
2013-02-07 09:29:00,73.6,59.8,30.00,NNE,23,3.0,-999.0,62,0.00,,,0.00,488,Wunderground v.1.15,2013-02-06 22:29:00,
2013-02-07 09:34:00,73.6,59.8,30.00,NNE,23,3.0,-999.0,62,0.00,,,0.00,488,Wunderground v.1.15,2013-02-06 22:34:00,
2013-02-07 09:39:00,73.6,59.8,30.00,NNE,23,3.0,-999.0,62,0.00,,,0.00,488,Wunderground v.1.15,2013-02-06 22:39:00,
2013-02-07 09:44:00,73.6,59.8,30.00,NNE,23,3.0,-999.0,62,0.00,,,0.00,488,Wunderground v.1.15,2013-02-06 22:44:00,
2013-02-07 09:49:00,76.7,60.3,30.00,NNE,23,3.0,-999.0,57,0.00,,,0.00,668,Wunderground v.1.15,2013-02-06 22:49:00,
2013-02-07 09:54:00,76.7,60.3,30.00,NNE,23,3.0,-999.0,57,0.00,,,0.00,668,Wunderground v.1.15,2013-02-06 22:54:00,
2013-02-07 09:59:00,76.7,60.3,30.00,NNE,23,3.0,-999.0,57,0.00,,,0.00,668,Wunderground v.1.15,2013-02-06 22:59:00,
2013-02-07 10:04:00,76.7,60.3,30.00,NNE,23,3.0,-999.0,57,0.00,,,0.00,668,Wunderground v.1.15,2013-02-06 23:04:00,
2013-02-07 10:09:00,76.7,60.3,30.00,NNE,23,3.0,-999.0,57,0.00,,,0.00,668,Wunderground v.1.15,2013-02-06 23:09:00,
2013-02-07 10:14:00,76.7,60.3,30.00,NNE,23,3.0,-999.0,57,0.00,,,0.00,668,Wunderground v.1.15,2013-02-06 23:14:00,
2013-02-07 10:19:00,79.2,60.1,30.00,NNW,338,3.0,-999.0,52,0.00,,,0.00,758,Wunderground v.1.15,2013-02-06 23:19:00,
2013-02-07 10:24:00,79.2,60.1,30.00,NNW,338,3.0,-999.0,52,0.00,,,0.00,758,Wunderground v.1.15,2013-02-06 23:24:00,
2013-02-07 10:29:00,79.2,60.1,30.00,NNW,338,3.0,-999.0,52,0.00,,,0.00,758,Wunderground v.1.15,2013-02-06 23:29:00,
2013-02-07 10:34:00,79.2,60.1,30.00,NNW,338,3.0,-999.0,52,0.00,,,0.00,758,Wunderground v.1.15,2013-02-06 23:34:00,
2013-02-07 10:39:00,79.2,60.1,30.00,NNW,338,3.0,-999.0,52,0.00,,,0.00,758,Wunderground v.1.15,2013-02-06 23:39:00,
2013-02-07 10:44:00,79.2,60.1,30.00,NNW,338,3.0,-999.0,52,0.00,,,0.00,758,Wunderground v.1.15,2013-02-06 23:44:00,
2013-02-07 10:49:00,79.8,61.1,30.00,NE,45,4.0,-999.0,53,0.00,,,0.00,834,Wunderground v.1.15,2013-02-06 23:49:00,
2013-02-07 10:54:00,79.8,61.1,30.00,NE,45,4.0,-999.0,53,0.00,,,0.00,834,Wunderground v.1.15,2013-02-06 23:54:00,
2013-02-07 10:59:00,79.8,61.1,30.00,NE,45,4.0,-999.0,53,0.00,,,0.00,834,Wunderground v.1.15,2013-02-06 23:59:00,
2013-02-07 11:04:00,79.8,61.1,30.00,NE,45,4.0,-999.0,53,0.00,,,0.00,834,Wunderground v.1.15,2013-02-07 00:04:00,
2013-02-07 11:09:00,79.8,61.1,30.00,NE,45,4.0,-999.0,53,0.00,,,0.00,834,Wunderground v.1.15,2013-02-07 00:09:00,
2013-02-07 11:14:00,79.8,61.1,30.00,NE,45,4.0,-999.0,53,0.00,,,0.00,834,Wunderground v.1.15,2013-02-07 00:14:00,
2013-02-07 11:19:00,80.6,59.7,30.00,ENE,68,4.0,-999.0,49,0.00,,,0.00,908,Wunderground v.1.15,2013-02-07 00:19:00,
2013-02-07 11:24:00,80.6,59.7,30.00,ENE,68,4.0,-999.0,49,0.00,,,0.00,908,Wunderground v.1.15,2013-02-07 00:24:00,
2013-02-07 11:29:00,80.6,59.7,30.00,ENE,68,4.0,-999.0,49,0.00,,,0.00,908,Wunderground v.1.15,2013-02-07 00:29:00,
2013-02-07 11:34:00,80.6,59.7,30.00,ENE,68,4.0,-999.0,49,0.00,,,0.00,908,Wunderground v.1.15,2013-02-07 00:34:00,
2013-02-07 11:39:00,80.6,59.7,30.00,ENE,68,4.0,-999.0,49,0.00,,,0.00,908,Wunderground v.1.15,2013-02-07 00:39:00,
2013-02-07 11:44:00,80.6,59.7,30.00,ENE,68,4.0,-999.0,49,0.00,,,0.00,908,Wunderground v.1.15,2013-02-07 00:44:00,
2013-02-07 11:49:00,82.1,58.7,29.99,NE,45,4.0,-999.0,45,0.00,,,0.00,985,Wunderground v.1.15,2013-02-07 00:49:00,
2013-02-07 11:54:00,82.1,58.7,29.99,NE,45,4.0,-999.0,45,0.00,,,0.00,985,Wunderground v.1.15,2013-02-07 00:54:00,
2013-02-07 11:59:00,82.1,58.7,29.99,NE,45,4.0,-999.0,45,0.00,,,0.00,985,Wunderground v.1.15,2013-02-07 00:59:00,
2013-02-07 12:04:00,82.1,58.7,29.99,NE,45,4.0,-999.0,45,0.00,,,0.00,985,Wunderground v.1.15,2013-02-07 01:04:00,
2013-02-07 12:09:00,82.1,58.7,29.99,NE,45,4.0,-999.0,45,0.00,,,0.00,985,Wunderground v.1.15,2013-02-07 01:09:00,
2013-02-07 12:14:00,82.1,58.7,29.99,NE,45,4.0,-999.0,45,0.00,,,0.00,985,Wunderground v.1.15,2013-02-07 01:14:00,
2013-02-07 12:19:00,83.1,63.1,29.98,NE,45,4.0,-999.0,51,0.00,,,0.00,1046,Wunderground v.1.15,2013-02-07 01:19:00,
2013-02-07 12:24:00,83.1,63.1,29.98,NE,45,4.0,-999.0,51,0.00,,,0.00,1046,Wunderground v.1.15,2013-02-07 01:24:00,
2013-02-07 12:29:00,83.1,63.1,29.98,NE,45,4.0,-999.0,51,0.00,,,0.00,1046,Wunderground v.1.15,2013-02-07 01:29:00,
2013-02-07 12:34:00,83.1,63.1,29.98,NE,45,4.0,-999.0,51,0.00,,,0.00,1046,Wunderground v.1.15,2013-02-07 01:34:00,
2013-02-07 12:39:00,83.1,63.1,29.98,NE,45,4.0,-999.0,51,0.00,,,0.00,1046,Wunderground v.1.15,2013-02-07 01:39:00,
2013-02-07 12:44:00,83.1,63.1,29.98,NE,45,4.0,-999.0,51,0.00,,,0.00,1046,Wunderground v.1.15,2013-02-07 01:44:00,
2013-02-07 12:49:00,82.5,65.2,29.97,ENE,68,4.0,-999.0,56,0.00,,,0.00,1043,Wunderground v.1.15,2013-02-07 01:49:00,
2013-02-07 12:54:00,82.5,65.2,29.97,ENE,68,4.0,-999.0,56,0.00,,,0.00,1043,Wunderground v.1.15,2013-02-07 01:54:00,
2013-02-07 12:59:00,82.5,65.2,29.97,ENE,68,4.0,-999.0,56,0.00,,,0.00,1043,Wunderground v.1.15,2013-02-07 01:59:00,
2013-02-07 13:04:00,82.5,65.2,29.97,ENE,68,4.0,-999.0,56,0.00,,,0.00,1043,Wunderground v.1.15,2013-02-07 02:04:00,
2013-02-07 13:09:00,82.5,65.2,29.97,ENE,68,4.0,-999.0,56,0.00,,,0.00,1043,Wunderground v.1.15,2013-02-07 02:09:00,
2013-02-07 13:14:00,82.5,65.2,29.97,ENE,68,4.0,-999.0,56,0.00,,,0.00,1043,Wunderground v.1.15,2013-02-07 02:14:00,
2013-02-07 13:19:00,82.5,64.2,29.96,ENE,68,3.0,-999.0,54,0.00,,,0.00,1018,Wunderground v.1.15,2013-02-07 02:19:00,
2013-02-07 13:24:00,82.5,64.2,29.96,ENE,68,3.0,-999.0,54,0.00,,,0.00,1018,Wunderground v.1.15,2013-02-07 02:24:00,
2013-02-07 13:29:00,82.5,64.2,29.96,ENE,68,3.0,-999.0,54,0.00,,,0.00,1018,Wunderground v.1.15,2013-02-07 02:29:00,
2013-02-07 13:34:00,82.5,64.2,29.96,ENE,68,3.0,-999.0,54,0.00,,,0.00,1018,Wunderground v.1.15,2013-02-07 02:34:00,
2013-02-07 13:39:00,82.5,64.2,29.96,ENE,68,3.0,-999.0,54,0.00,,,0.00,1018,Wunderground v.1.15,2013-02-07 02:39:00,
2013-02-07 13:44:00,82.5,64.2,29.96,ENE,68,3.0,-999.0,54,0.00,,,0.00,1018,Wunderground v.1.15,2013-02-07 02:44:00,
2013-02-07 13:49:00,82.4,65.1,29.95,NE,45,4.0,-999.0,56,0.00,,,0.00,988,Wunderground v.1.15,2013-02-07 02:49:00,
2013-02-07 13:54:00,82.4,65.1,29.95,NE,45,4.0,-999.0,56,0.00,,,0.00,988,Wunderground v.1.15,2013-02-07 02:54:00,
2013-02-07 13:59:00,82.4,65.1,29.95,NE,45,4.0,-999.0,56,0.00,,,0.00,988,Wunderground v.1.15,2013-02-07 02:59:00,
2013-02-07 14:04:00,82.4,65.1,29.95,NE,45,4.0,-999.0,56,0.00,,,0.00,988,Wunderground v.1.15,2013-02-07 03:04:00,
2013-02-07 14:09:00,81.4,64.2,29.95,East,86,4.0,4.0,56,0.00,,,0.00,963,Wunderground v.1.15,2013-02-07 03:09:00,
2013-02-07 14:14:00,82.4,65.1,29.95,NE,45,4.0,-999.0,56,0.00,,,0.00,988,Wunderground v.1.15,2013-02-07 03:14:00,
2013-02-07 14:19:00,81.2,63.5,29.95,East,87,5.0,5.0,55,0.00,,,0.00,953,Wunderground v.1.15,2013-02-07 03:19:00,
2013-02-07 14:24:00,82.4,64.1,29.95,NE,46,4.0,5.0,54,0.00,,,0.00,946,Wunderground v.1.15,2013-02-07 03:24:00,
2013-02-07 14:29:00,82.2,64.4,29.94,ENE,74,3.0,7.0,55,0.00,,,0.00,942,Wunderground v.1.15,2013-02-07 03:29:00,
2013-02-07 14:34:00,82.1,64.3,29.94,ENE,65,4.0,10.0,55,0.00,,,0.00,935,Wunderground v.1.15,2013-02-07 03:34:00,
2013-02-07 14:39:00,81.4,63.7,29.94,ENE,78,5.0,12.0,55,0.00,,,0.00,926,Wunderground v.1.15,2013-02-07 03:39:00,
2013-02-07 14:44:00,81.6,63.9,29.94,ENE,68,4.0,-999.0,55,0.00,,,0.00,959,Wunderground v.1.15,2013-02-07 03:44:00,
2013-02-07 14:49:00,80.7,64.1,29.93,ENE,58,5.0,5.0,57,0.00,,,0.00,912,Wunderground v.1.15,2013-02-07 03:49:00,
2013-02-07 14:54:00,81.1,64.4,29.93,NNE,30,4.0,5.0,57,0.00,,,0.00,900,Wunderground v.1.15,2013-02-07 03:54:00,
2013-02-07 14:59:00,81.3,64.1,29.93,NE,40,5.0,5.0,56,0.00,,,0.00,891,Wunderground v.1.15,2013-02-07 03:59:00,
2013-02-07 15:04:00,80.3,64.2,29.93,NNE,24,6.0,6.0,58,0.00,,,0.00,881,Wunderground v.1.15,2013-02-07 04:04:00,
2013-02-07 15:09:00,81.5,64.3,29.93,ENE,76,5.0,7.0,56,0.00,,,0.00,872,Wunderground v.1.15,2013-02-07 04:09:00,
2013-02-07 15:14:00,81.1,64.4,29.93,NE,41,4.0,9.0,57,0.00,,,0.00,860,Wunderground v.1.15,2013-02-07 04:14:00,
2013-02-07 15:19:00,81.4,64.7,29.93,ENE,68,4.0,-999.0,57,0.00,,,0.00,857,Wunderground v.1.15,2013-02-07 04:19:00,
2013-02-07 15:24:00,81.8,64.1,29.93,North,360,4.0,6.0,55,0.00,,,0.00,831,Wunderground v.1.15,2013-02-07 04:24:00,
2013-02-07 15:29:00,81.6,64.9,29.93,NE,41,4.0,6.0,57,0.00,,,0.00,824,Wunderground v.1.15,2013-02-07 04:29:00,
2013-02-07 15:34:00,81.1,63.9,29.93,NNW,346,4.0,4.0,56,0.00,,,0.00,810,Wunderground v.1.15,2013-02-07 04:34:00,
2013-02-07 15:39:00,80.8,63.6,29.92,ESE,119,5.0,5.0,56,0.00,,,0.00,800,Wunderground v.1.15,2013-02-07 04:39:00,
2013-02-07 15:44:00,81.0,63.8,29.92,ENE,70,5.0,12.0,56,0.00,,,0.00,788,Wunderground v.1.15,2013-02-07 04:44:00,
2013-02-07 15:49:00,81.1,63.4,29.92,ENE,68,5.0,-999.0,55,0.00,,,0.00,785,Wunderground v.1.15,2013-02-07 04:49:00,
2013-02-07 15:54:00,81.1,63.4,29.92,NNE,24,5.0,5.0,55,0.00,,,0.00,759,Wunderground v.1.15,2013-02-07 04:54:00,
2013-02-07 15:59:00,81.1,63.4,29.91,SE,144,5.0,5.0,55,0.00,,,0.00,747,Wunderground v.1.15,2013-02-07 04:59:00,
2013-02-07 16:04:00,81.6,63.3,29.92,East,88,4.0,7.0,54,0.00,,,0.00,735,Wunderground v.1.15,2013-02-07 05:04:00,
2013-02-07 16:09:00,80.6,62.9,29.91,NNE,17,4.0,7.0,55,0.00,,,0.00,719,Wunderground v.1.15,2013-02-07 05:09:00,
2013-02-07 16:14:00,81.1,63.4,29.91,East,95,4.0,6.0,55,0.00,,,0.00,705,Wunderground v.1.15,2013-02-07 05:14:00,
2013-02-07 16:19:00,80.6,63.5,29.91,ENE,58,5.0,6.0,56,0.00,,,0.00,691,Wunderground v.1.15,2013-02-07 05:19:00,
2013-02-07 16:24:00,80.9,63.7,29.91,North,355,4.0,5.0,56,0.00,,,0.00,677,Wunderground v.1.15,2013-02-07 05:24:00,
2013-02-07 16:29:00,81.0,63.8,29.91,ENE,67,4.0,8.0,56,0.00,,,0.00,663,Wunderground v.1.15,2013-02-07 05:29:00,
2013-02-07 16:34:00,81.9,64.1,29.91,ENE,71,4.0,9.0,55,0.00,,,0.00,647,Wunderground v.1.15,2013-02-07 05:34:00,
2013-02-07 16:39:00,80.5,63.9,29.91,ESE,108,4.0,9.0,57,0.00,,,0.00,631,Wunderground v.1.15,2013-02-07 05:39:00,
2013-02-07 16:44:00,79.6,63.5,29.91,NE,42,6.0,6.0,58,0.00,,,0.00,617,Wunderground v.1.15,2013-02-07 05:44:00,
2013-02-07 16:49:00,79.8,64.2,29.91,ENE,61,5.0,7.0,59,0.00,,,0.00,603,Wunderground v.1.15,2013-02-07 05:49:00,
2013-02-07 16:54:00,80.4,64.3,29.91,ENE,69,4.0,4.0,58,0.00,,,0.00,584,Wunderground v.1.15,2013-02-07 05:54:00,
2013-02-07 16:59:00,80.9,64.2,29.91,North,360,4.0,4.0,57,0.00,,,0.00,568,Wunderground v.1.15,2013-02-07 05:59:00,
2013-02-07 17:04:00,80.6,64.0,29.91,ENE,68,4.0,-999.0,57,0.00,,,0.00,615,Wunderground v.1.15,2013-02-07 06:04:00,
2013-02-07 17:09:00,79.4,63.3,29.90,ENE,64,6.0,6.0,58,0.00,,,0.00,533,Wunderground v.1.15,2013-02-07 06:09:00,
2013-02-07 17:14:00,79.0,63.4,29.90,NE,55,6.0,6.0,59,0.00,,,0.00,517,Wunderground v.1.15,2013-02-07 06:14:00,
2013-02-07 17:19:00,79.4,63.8,29.90,ENE,67,5.0,7.0,59,0.00,,,0.00,501,Wunderground v.1.15,2013-02-07 06:19:00,
2013-02-07 17:24:00,79.4,62.8,29.90,ENE,63,6.0,9.0,57,0.00,,,0.00,482,Wunderground v.1.15,2013-02-07 06:24:00,
2013-02-07 17:29:00,79.5,63.9,29.90,ENE,68,6.0,-999.0,59,0.00,,,0.00,515,Wunderground v.1.15,2013-02-07 06:29:00,
2013-02-07 17:34:00,78.9,63.4,29.90,NNE,32,6.0,7.0,59,0.00,,,0.00,443,Wunderground v.1.15,2013-02-07 06:34:00,
2013-02-07 17:39:00,78.9,63.4,29.90,NNE,30,6.0,7.0,59,0.00,,,0.00,424,Wunderground v.1.15,2013-02-07 06:39:00,
2013-02-07 17:44:00,79.5,63.9,29.90,ENE,68,6.0,-999.0,59,0.00,,,0.00,515,Wunderground v.1.15,2013-02-07 06:44:00,
2013-02-07 17:49:00,78.6,64.0,29.90,ENE,68,6.0,-999.0,61,0.00,,,0.00,406,Wunderground v.1.15,2013-02-07 06:49:00,
2013-02-07 17:54:00,78.6,64.0,29.90,ENE,68,6.0,-999.0,61,0.00,,,0.00,406,Wunderground v.1.15,2013-02-07 06:54:00,
2013-02-07 17:59:00,78.6,64.0,29.90,ENE,68,6.0,-999.0,61,0.00,,,0.00,406,Wunderground v.1.15,2013-02-07 06:59:00,
2013-02-07 18:04:00,78.6,64.0,29.90,ENE,68,6.0,-999.0,61,0.00,,,0.00,406,Wunderground v.1.15,2013-02-07 07:04:00,
2013-02-07 18:09:00,78.6,64.0,29.90,ENE,68,6.0,-999.0,61,0.00,,,0.00,406,Wunderground v.1.15,2013-02-07 07:09:00,
2013-02-07 18:14:00,78.6,64.0,29.90,ENE,68,6.0,-999.0,61,0.00,,,0.00,406,Wunderground v.1.15,2013-02-07 07:14:00,
2013-02-07 18:19:00,78.1,63.1,29.90,ENE,68,5.0,-999.0,60,0.00,,,0.00,296,Wunderground v.1.15,2013-02-07 07:19:00,
2013-02-07 18:24:00,78.1,63.1,29.90,ENE,68,5.0,-999.0,60,0.00,,,0.00,296,Wunderground v.1.15,2013-02-07 07:24:00,
2013-02-07 18:29:00,78.1,63.1,29.90,ENE,68,5.0,-999.0,60,0.00,,,0.00,296,Wunderground v.1.15,2013-02-07 07:29:00,
2013-02-07 18:34:00,78.1,63.1,29.90,ENE,68,5.0,-999.0,60,0.00,,,0.00,296,Wunderground v.1.15,2013-02-07 07:34:00,
2013-02-07 18:39:00,78.1,63.1,29.90,ENE,68,5.0,-999.0,60,0.00,,,0.00,296,Wunderground v.1.15,2013-02-07 07:39:00,
2013-02-07 18:44:00,78.1,63.1,29.90,ENE,68,5.0,-999.0,60,0.00,,,0.00,296,Wunderground v.1.15,2013-02-07 07:44:00,
2013-02-07 18:49:00,77.6,63.1,29.91,ENE,68,5.0,-999.0,61,0.00,,,0.00,187,Wunderground v.1.15,2013-02-07 07:49:00,
2013-02-07 18:54:00,77.6,63.1,29.91,ENE,68,5.0,-999.0,61,0.00,,,0.00,187,Wunderground v.1.15,2013-02-07 07:54:00,
2013-02-07 18:59:00,77.6,63.1,29.91,ENE,68,5.0,-999.0,61,0.00,,,0.00,187,Wunderground v.1.15,2013-02-07 07:59:00,
2013-02-07 19:04:00,77.6,63.1,29.91,ENE,68,5.0,-999.0,61,0.00,,,0.00,187,Wunderground v.1.15,2013-02-07 08:04:00,
2013-02-07 19:09:00,77.6,63.1,29.91,ENE,68,5.0,-999.0,61,0.00,,,0.00,187,Wunderground v.1.15,2013-02-07 08:09:00,
2013-02-07 19:14:00,77.6,63.1,29.91,ENE,68,5.0,-999.0,61,0.00,,,0.00,187,Wunderground v.1.15,2013-02-07 08:14:00,
2013-02-07 19:19:00,76.3,63.2,29.92,ENE,68,5.0,-999.0,64,0.00,,,0.00,75,Wunderground v.1.15,2013-02-07 08:19:00,
2013-02-07 19:24:00,76.3,63.2,29.92,ENE,68,5.0,-999.0,64,0.00,,,0.00,75,Wunderground v.1.15,2013-02-07 08:24:00,
2013-02-07 19:29:00,76.3,63.2,29.92,ENE,68,5.0,-999.0,64,0.00,,,0.00,75,Wunderground v.1.15,2013-02-07 08:29:00,
2013-02-07 19:34:00,76.3,63.2,29.92,ENE,68,5.0,-999.0,64,0.00,,,0.00,75,Wunderground v.1.15,2013-02-07 08:34:00,
2013-02-07 19:39:00,76.3,63.2,29.92,ENE,68,5.0,-999.0,64,0.00,,,0.00,75,Wunderground v.1.15,2013-02-07 08:39:00,
2013-02-07 19:44:00,76.3,63.2,29.92,ENE,68,5.0,-999.0,64,0.00,,,0.00,75,Wunderground v.1.15,2013-02-07 08:44:00,
2013-02-07 19:49:00,74.6,61.6,29.92,ENE,68,5.0,-999.0,64,0.00,,,0.00,11,Wunderground v.1.15,2013-02-07 08:49:00,
2013-02-07 19:54:00,74.6,61.6,29.92,ENE,68,5.0,-999.0,64,0.00,,,0.00,11,Wunderground v.1.15,2013-02-07 08:54:00,
2013-02-07 19:59:00,74.6,61.6,29.92,ENE,68,5.0,-999.0,64,0.00,,,0.00,11,Wunderground v.1.15,2013-02-07 08:59:00,
2013-02-07 20:04:00,74.6,61.6,29.92,ENE,68,5.0,-999.0,64,0.00,,,0.00,11,Wunderground v.1.15,2013-02-07 09:04:00,
2013-02-07 20:09:00,74.6,61.6,29.92,ENE,68,5.0,-999.0,64,0.00,,,0.00,11,Wunderground v.1.15,2013-02-07 09:09:00,
2013-02-07 20:14:00,74.6,61.6,29.92,ENE,68,5.0,-999.0,64,0.00,,,0.00,11,Wunderground v.1.15,2013-02-07 09:14:00,
2013-02-07 20:19:00,73.6,61.5,29.93,ENE,68,4.0,-999.0,66,0.00,,,0.00,0,Wunderground v.1.15,2013-02-07 09:19:00,
2013-02-07 20:24:00,73.6,61.5,29.93,ENE,68,4.0,-999.0,66,0.00,,,0.00,0,Wunderground v.1.15,2013-02-07 09:24:00,
2013-02-07 20:29:00,73.6,61.5,29.93,ENE,68,4.0,-999.0,66,0.00,,,0.00,0,Wunderground v.1.15,2013-02-07 09:29:00,
2013-02-07 20:34:00,73.6,61.5,29.93,ENE,68,4.0,-999.0,66,0.00,,,0.00,0,Wunderground v.1.15,2013-02-07 09:34:00,
2013-02-07 20:39:00,73.6,61.5,29.93,ENE,68,4.0,-999.0,66,0.00,,,0.00,0,Wunderground v.1.15,2013-02-07 09:39:00,
2013-02-07 20:44:00,73.6,61.5,29.93,ENE,68,4.0,-999.0,66,0.00,,,0.00,0,Wunderground v.1.15,2013-02-07 09:44:00,
2013-02-07 20:49:00,73.1,60.6,29.93,ENE,68,5.0,-999.0,65,0.00,,,0.00,0,Wunderground v.1.15,2013-02-07 09:49:00,
2013-02-07 20:54:00,73.1,60.6,29.93,ENE,68,5.0,-999.0,65,0.00,,,0.00,0,Wunderground v.1.15,2013-02-07 09:54:00,
2013-02-07 20:59:00,73.1,60.6,29.93,ENE,68,5.0,-999.0,65,0.00,,,0.00,0,Wunderground v.1.15,2013-02-07 09:59:00,
2013-02-07 21:04:00,73.1,60.6,29.93,ENE,68,5.0,-999.0,65,0.00,,,0.00,0,Wunderground v.1.15,2013-02-07 10:04:00,
2013-02-07 21:09:00,73.1,60.6,29.93,ENE,68,5.0,-999.0,65,0.00,,,0.00,0,Wunderground v.1.15,2013-02-07 10:09:00,
2013-02-07 21:14:00,73.1,60.6,29.93,ENE,68,5.0,-999.0,65,0.00,,,0.00,0,Wunderground v.1.15,2013-02-07 10:14:00,
2013-02-07 21:19:00,72.6,61.0,29.94,NE,45,5.0,-999.0,67,0.00,,,0.00,0,Wunderground v.1.15,2013-02-07 10:19:00,
2013-02-07 21:24:00,72.6,61.0,29.94,NE,45,5.0,-999.0,67,0.00,,,0.00,0,Wunderground v.1.15,2013-02-07 10:24:00,
2013-02-07 21:29:00,72.6,61.0,29.94,NE,45,5.0,-999.0,67,0.00,,,0.00,0,Wunderground v.1.15,2013-02-07 10:29:00,
2013-02-07 21:34:00,72.6,61.0,29.94,NE,45,5.0,-999.0,67,0.00,,,0.00,0,Wunderground v.1.15,2013-02-07 10:34:00,
2013-02-07 21:39:00,72.6,61.0,29.94,NE,45,5.0,-999.0,67,0.00,,,0.00,0,Wunderground v.1.15,2013-02-07 10:39:00,
2013-02-07 21:44:00,72.6,61.0,29.94,NE,45,5.0,-999.0,67,0.00,,,0.00,0,Wunderground v.1.15,2013-02-07 10:44:00,
2013-02-07 21:49:00,71.9,61.6,29.95,ENE,68,4.0,-999.0,70,0.00,,,0.00,0,Wunderground v.1.15,2013-02-07 10:49:00,
2013-02-07 21:54:00,71.9,61.6,29.95,ENE,68,4.0,-999.0,70,0.00,,,0.00,0,Wunderground v.1.15,2013-02-07 10:54:00,
2013-02-07 21:59:00,71.9,61.6,29.95,ENE,68,4.0,-999.0,70,0.00,,,0.00,0,Wunderground v.1.15,2013-02-07 10:59:00,
2013-02-07 22:04:00,71.9,61.6,29.95,ENE,68,4.0,-999.0,70,0.00,,,0.00,0,Wunderground v.1.15,2013-02-07 11:04:00,
2013-02-07 22:09:00,71.9,61.6,29.95,ENE,68,4.0,-999.0,70,0.00,,,0.00,0,Wunderground v.1.15,2013-02-07 11:09:00,
2013-02-07 22:14:00,71.9,61.6,29.95,ENE,68,4.0,-999.0,70,0.00,,,0.00,0,Wunderground v.1.15,2013-02-07 11:14:00,
2013-02-07 22:19:00,71.3,61.8,29.96,NE,45,3.0,-999.0,72,0.00,,,0.00,0,Wunderground v.1.15,2013-02-07 11:19:00,
2013-02-07 22:24:00,71.3,61.8,29.96,NE,45,3.0,-999.0,72,0.00,,,0.00,0,Wunderground v.1.15,2013-02-07 11:24:00,
2013-02-07 22:29:00,71.3,61.8,29.96,NE,45,3.0,-999.0,72,0.00,,,0.00,0,Wunderground v.1.15,2013-02-07 11:29:00,
2013-02-07 22:34:00,71.3,61.8,29.96,NE,45,3.0,-999.0,72,0.00,,,0.00,0,Wunderground v.1.15,2013-02-07 11:34:00,
2013-02-07 22:39:00,71.3,61.8,29.96,NE,45,3.0,-999.0,72,0.00,,,0.00,0,Wunderground v.1.15,2013-02-07 11:39:00,
2013-02-07 22:44:00,71.3,61.8,29.96,NE,45,3.0,-999.0,72,0.00,,,0.00,0,Wunderground v.1.15,2013-02-07 11:44:00,
2013-02-07 22:49:00,70.7,62.0,29.95,NE,45,3.0,-999.0,74,0.00,,,0.00,0,Wunderground v.1.15,2013-02-07 11:49:00,
2013-02-07 22:54:00,70.7,62.0,29.95,NE,45,3.0,-999.0,74,0.00,,,0.00,0,Wunderground v.1.15,2013-02-07 11:54:00,
2013-02-07 22:59:00,70.7,62.0,29.95,NE,45,3.0,-999.0,74,0.00,,,0.00,0,Wunderground v.1.15,2013-02-07 11:59:00,
2013-02-07 23:04:00,70.7,62.0,29.95,NE,45,3.0,-999.0,74,0.00,,,0.00,0,Wunderground v.1.15,2013-02-07 12:04:00,
2013-02-07 23:09:00,70.7,62.0,29.95,NE,45,3.0,-999.0,74,0.00,,,0.00,0,Wunderground v.1.15,2013-02-07 12:09:00,
2013-02-07 23:14:00,70.7,62.0,29.95,NE,45,3.0,-999.0,74,0.00,,,0.00,0,Wunderground v.1.15,2013-02-07 12:14:00,
2013-02-07 23:19:00,70.3,62.0,29.95,NE,45,2.0,-999.0,75,0.00,,,0.00,0,Wunderground v.1.15,2013-02-07 12:19:00,
2013-02-07 23:24:00,70.3,62.0,29.95,NE,45,2.0,-999.0,75,0.00,,,0.00,0,Wunderground v.1.15,2013-02-07 12:24:00,
2013-02-07 23:29:00,70.3,62.0,29.95,NE,45,2.0,-999.0,75,0.00,,,0.00,0,Wunderground v.1.15,2013-02-07 12:29:00,
2013-02-07 23:34:00,70.3,62.0,29.95,NE,45,2.0,-999.0,75,0.00,,,0.00,0,Wunderground v.1.15,2013-02-07 12:34:00,
2013-02-07 23:39:00,70.3,62.0,29.95,NE,45,2.0,-999.0,75,0.00,,,0.00,0,Wunderground v.1.15,2013-02-07 12:39:00,
2013-02-07 23:44:00,70.3,62.0,29.95,NE,45,2.0,-999.0,75,0.00,,,0.00,0,Wunderground v.1.15,2013-02-07 12:44:00,
2013-02-07 23:49:00,69.9,62.0,29.96,NNE,23,2.0,-999.0,76,0.00,,,0.00,0,Wunderground v.1.15,2013-02-07 12:49:00,
2013-02-07 23:54:00,69.9,62.0,29.96,NNE,23,2.0,-999.0,76,0.00,,,0.00,0,Wunderground v.1.15,2013-02-07 12:54:00,
2013-02-07 23:59:00,69.9,62.0,29.96,NNE,23,2.0,-999.0,76,0.00,,,0.00,0,Wunderground v.1.15,2013-02-07 12:59:00,